DECAYED

STARLINK-1237, 45192 (Decayed)

Orbit data source: Space-Track

STARLINK-1237, 45192 was a payload satellite owned by SpaceX/Seattle (US) in LEO that was launched on Mon, 17 Feb 2020 UTC via an FALCON 9 launch vehicle from the Air Force Eastern Test Range (AFETR). Payload-class satellites include a variety of spacecraft equipped with specific instruments for various scientific and technological missions. These include communications satellites like Starlink; space stations such as the ISS; scientific satellites like the Hubble; Earth observation satellites from companies like Planet Labs, Umbra, and HawkEye 360; GPS; miniature CubeSats for education and research; and military/defense satellites.

Not visible in the next 10 days
Identifier
45192, 2020-012Q
Orbit
Decayed
Country
Flag of USUS
Related business
Manufacturer
SpaceX/Seattle
Mission
Decayed Commercial Communications
Bus & Motor
STARLINK, Unknown motor
Mass
260 kg wet, ~248 kg dry
Launch date (UTC)
2020-02-17 (6 years ago)
Launch vehicle
FALCON 9
Launch site
Air Force Eastern Test Range (AFETR)
Object type
Payload
Rocket body
Debris
Shape & HBR
Box + 1 Pan, 10.1 m
Radar Cross Section
13.562 m², Large (>1 m²)

Expand to show TLE details & history
Last TLE update: 3 months ago

TLE from 3 months ago
0 STARLINK-1237
1 45192U 20012Q   25260.48427983  .10131376  12513-4  34107-3 0  9992
2 45192  53.0359  46.8585 0006094 288.3854  71.6532 16.44284184309537
Epoch: 2025-09-17T11:37Z
TLE epoch observation values (Epoch: 2025-09-17T11:37:21.777Z)
Latitude
0.00004°
Longitude
-124.14177°
Altitude
154.11 km
Speed
7.816 km/s
True Right ascension
03h 07m 26s
True Declination
0° 00' 00"
Sunlit
Object was in full shadow at epoch
Visualization orbit readout
Latitude
Unknown
Longitude
Unknown
Altitude
Unknown
Speed
Unknown
Apparent Right ascension
Unknown
Apparent Declination
Unknown
Sunlit
N/A
Visualization observer readout
Local Sidereal Time
12:25:00
Azimuth
Unknown
Elevation
Unknown
Doppler factor
Unknown
Orbital elements
Apogee altitude
158.702 km
Perigee altitude
150.739 km
Semi-major axis
6,532.857 km
Eccentricity
0.00061
Inclination
53.0359°
RAAN
46.8585°
Arg. of periapsis
288.3854°
True anomaly
71.7195°
Mean anomaly
71.6532°
Eccentric anomaly
71.68635°
Mean motion
4.11044 °/min
Orbital period
87.58 mins
BSTAR
0.00034107
Loading maneuver chart data...
Computing Atmospheric mass density...
Loading historical data...
Loading historical data...
Loading historical data...
Loading historical data...
Loading historical data...
Loading historical data...
Loading historical data...

Documentation

Showing up to 5 results
|